カタログに戻る

STARLINK-34706

運用中通信SSO
NORAD 64845·PAYLOAD·🇺🇸 United States

打ち上げ Jul 19, 2025 から Vandenberg Space Force Base

Loading…

次のパス (今後24時間)

TLE

最新Source: CelesTrak SupGP

元期: Sep 14, 2026, 23:14 UTC

1 64845C 25152D   26257.96854167  .00086295  00000+0  26783-2 0  2574
2 64845  97.2844 108.5559 0001668  96.6888 245.1889 15.33400421    13

AllMySatでSTARLINK-34706をリアルタイム追跡

Download on the App Store